Location: Chimay
(50.0486°N, 4.3171°E)
Time: 21:35:42
(UTC+00:00)

Meteor 1-11 Rocket - Pass Details

Date: 08 August 2020
Orbit: 832 x 915 km, 81.2° (Epoch: 22 September)

Event Time Altitude Azimuth Distance (km) Brightness Sun altitude
Exits shadow 22:09:14 38° 130° (SE) 1,293 4.2 -20.6°
Maximum altitude 22:10:37 45° 93° (E) 1,164 4.2 -20.7°
Drops below altitude 10° 22:16:03 10° 23° (NNE) 2,537 6.8 -21.1°
Sets 22:18:36 0° 17° (NNE) 3,494 7.7 -21.3°
